O3B FM8 (40082 NORAD) Tracking and Keplerian Element Data

This shows tracking and keplerian element data for the satellite.

Feedback or suggestion? Click here.




ElementValue
Catalog40082
NameO3B FM8
Epoch Orbit7961
Epoch Day322.23810226
Epoch Year2018
RAAN8.6523
Inclination0.0509
Eccentricity0.0002625
Argument of Perigee228.1497
Mean Anonmoly123.1796
Mean Motion5.00115072
Decay Rate-1.8E-07
L11 40082U 14038D 18322.23810226 -.00000018 00000-0 00000-0 0 9990
L22 40082 0.0509 8.6523 0002625 228.1497 123.1796 5.00115072 79615

Live tracking and technical data element details for O3B FM8 (NORAD 40082). O3B FM8 can be tracked NOW for your location showing map with azimuth and elevation plus other details from your city location.

Track the satellite on the map from your city or location and see movement details for azimuth, elevation, latitude, longitude, range, height, and movement on the map or in text.







IsCatalogInMostPopularTable: catalog: 40082, numindb: 96
Update: records affected: 1



GetName: 40082 O3B FM8

Hit Count: updated at: Tue, 20 Nov 2018 00:15:28 GMT